owner,sensor,date,latitude,longitude,vertical_datum,wind_speed,wind_to_direction,wind_speed_of_gust,qcFlag 
COMPS,ioos:station:USF.COMPS:ARP:1,2015-10-01T00:00:00Z,28.4330,-82.6670,10.0,3.74,308.24,5.39,'1111122,1111122,1111122' 
COMPS,ioos:station:USF.COMPS:ARP:1,2015-10-01T00:06:00Z,28.4330,-82.6670,10.0,4.23,307.01,5.39,'1111122,1111122,1111122' 
COMPS,ioos:station:USF.COMPS:ARP:1,2015-10-01T00:12:00Z,28.4330,-82.6670,10.0,4.75,307.08,6.17,'1111122,1111122,1111122' 
COMPS,ioos:station:USF.COMPS:ARP:1,2015-10-01T00:18:00Z,28.4330,-82.6670,10.0,4.73,303.8,5.58,'1111122,1111122,1111122' 
COMPS,ioos:station:USF.COMPS:ARP:1,2015-10-01T00:24:00Z,28.4330,-82.6670,10.0,4.26,305.3,5.78,'1111122,1111122,1111122' 
COMPS,ioos:station:USF.COMPS:ARP:1,2015-10-01T00:30:00Z,28.4330,-82.6670,10.0,3.88,303.12,5.19,'1111122,1111122,1111122' 
COMPS,ioos:station:USF.COMPS:ARP:1,2015-10-01T00:36:00Z,28.4330,-82.6670,10.0,3.89,302.31,4.8,'1111122,1111122,1111122' 
COMPS,ioos:station:USF.COMPS:ARP:1,2015-10-01T00:42:00Z,28.4330,-82.6670,10.0,4.04,297.79,4.9,'1111122,1111122,1111122' 
COMPS,ioos:station:USF.COMPS:ARP:1,2015-10-01T00:48:00Z,28.4330,-82.6670,10.0,4.12,305.02,5.29,'1111122,1111122,1111122' 
COMPS,ioos:station:USF.COMPS:ARP:1,2015-10-01T00:54:00Z,28.4330,-82.6670,10.0,4.18,302.37,4.9,'1111122,1111122,1111122' 
COMPS,ioos:station:USF.COMPS:ARP:1,2015-10-01T01:00:00Z,28.4330,-82.6670,10.0,3.7,302.3,4.5,'1111122,1111122,1111122' 
COMPS,ioos:station:USF.COMPS:ARP:1,2015-10-01T01:06:00Z,28.4330,-82.6670,10.0,3.88,303.41,4.8,'1111122,1111122,1111122' 
COMPS,ioos:station:USF.COMPS:ARP:1,2015-10-01T01:12:00Z,28.4330,-82.6670,10.0,3.78,304.58,4.99,'1111122,1111122,1111122' 
COMPS,ioos:station:USF.COMPS:ARP:1,2015-10-01T01:18:00Z,28.4330,-82.6670,10.0,3.72,303.49,4.9,'1111122,1111122,1111122' 
COMPS,ioos:station:USF.COMPS:ARP:1,2015-10-01T01:24:00Z,28.4330,-82.6670,10.0,3.51,300.65,4.31,'1111122,1111122,1111122' 
COMPS,ioos:station:USF.COMPS:ARP:1,2015-10-01T01:30:00Z,28.4330,-82.6670,10.0,3.49,303.82,4.5,'1111122,1111122,1111122' 
COMPS,ioos:station:USF.COMPS:ARP:1,2015-10-01T01:36:00Z,28.4330,-82.6670,10.0,3.75,304.74,4.99,'1111122,1111122,1111122' 
COMPS,ioos:station:USF.COMPS:ARP:1,2015-10-01T01:42:00Z,28.4330,-82.6670,10.0,4.2,304.39,5.09,'1111122,1111122,1111122' 
COMPS,ioos:station:USF.COMPS:ARP:1,2015-10-01T01:48:00Z,28.4330,-82.6670,10.0,3.6,300.38,4.31,'1111122,1111122,1111122' 
COMPS,ioos:station:USF.COMPS:ARP:1,2015-10-01T01:54:00Z,28.4330,-82.6670,10.0,3.92,307.57,4.7,'1111122,1111122,1111122' 
COMPS,ioos:station:USF.COMPS:ARP:1,2015-10-01T02:00:00Z,28.4330,-82.6670,10.0,3.53,310.51,4.9,'1111122,1111122,1111122' 
COMPS,ioos:station:USF.COMPS:ARP:1,2015-10-01T02:06:00Z,28.4330,-82.6670,10.0,3.86,309.02,5.09,'1111122,1111122,1111122' 
COMPS,ioos:station:USF.COMPS:ARP:1,2015-10-01T02:12:00Z,28.4330,-82.6670,10.0,3.9,308.76,4.9,'1111122,1111122,1111122' 
COMPS,ioos:station:USF.COMPS:ARP:1,2015-10-01T02:18:00Z,28.4330,-82.6670,10.0,4.17,306.87,5.29,'1111122,1111122,1111122' 
COMPS,ioos:station:USF.COMPS:ARP:1,2015-10-01T02:24:00Z,28.4330,-82.6670,10.0,4.92,302.75,6.07,'1111122,1111122,1111122' 
COMPS,ioos:station:USF.COMPS:ARP:1,2015-10-01T02:30:00Z,28.4330,-82.6670,10.0,4.72,307.18,5.78,'1111122,1111122,1111122' 
COMPS,ioos:station:USF.COMPS:ARP:1,2015-10-01T02:36:00Z,28.4330,-82.6670,10.0,4.18,310.32,5.29,'1111122,1111122,1111122' 
COMPS,ioos:station:USF.COMPS:ARP:1,2015-10-01T02:42:00Z,28.4330,-82.6670,10.0,4.11,311.33,5.19,'1111122,1111122,1111122' 
COMPS,ioos:station:USF.COMPS:ARP:1,2015-10-01T02:48:00Z,28.4330,-82.6670,10.0,4.26,307.55,6.17,'1111122,1111122,1111122' 
COMPS,ioos:station:USF.COMPS:ARP:1,2015-10-01T02:54:00Z,28.4330,-82.6670,10.0,4.03,309.21,5.19,'1111122,1111122,1111122' 
COMPS,ioos:station:USF.COMPS:ARP:1,2015-10-01T03:00:00Z,28.4330,-82.6670,10.0,3.28,309.55,5.39,'1111122,1111122,1111122' 
COMPS,ioos:station:USF.COMPS:ARP:1,2015-10-01T03:06:00Z,28.4330,-82.6670,10.0,3.71,312.1,5.19,'1111122,1111122,1111122' 
COMPS,ioos:station:USF.COMPS:ARP:1,2015-10-01T03:12:00Z,28.4330,-82.6670,10.0,2.04,312.6,3.33,'1111122,1111122,1111122' 
COMPS,ioos:station:USF.COMPS:ARP:1,2015-10-01T03:18:00Z,28.4330,-82.6670,10.0,1.99,315.33,4.01,'1111122,1111122,1111122' 
COMPS,ioos:station:USF.COMPS:ARP:1,2015-10-01T03:24:00Z,28.4330,-82.6670,10.0,2.11,312.91,3.72,'1111122,1111122,1111122' 
COMPS,ioos:station:USF.COMPS:ARP:1,2015-10-01T03:30:00Z,28.4330,-82.6670,10.0,2.5,309.45,3.62,'1111122,1111122,1111122' 
COMPS,ioos:station:USF.COMPS:ARP:1,2015-10-01T03:36:00Z,28.4330,-82.6670,10.0,2.25,311.82,4.01,'1111122,1111122,1111122' 
COMPS,ioos:station:USF.COMPS:ARP:1,2015-10-01T03:42:00Z,28.4330,-82.6670,10.0,1.65,319.12,2.93,'1111122,1111122,1111122' 
COMPS,ioos:station:USF.COMPS:ARP:1,2015-10-01T03:48:00Z,28.4330,-82.6670,10.0,1.49,314.4,3.03,'1111122,1111122,1111122' 
COMPS,ioos:station:USF.COMPS:ARP:1,2015-10-01T03:54:00Z,28.4330,-82.6670,10.0,2.33,315.13,4.7,'1111122,1111122,1111122' 
COMPS,ioos:station:USF.COMPS:ARP:1,2015-10-01T04:00:00Z,28.4330,-82.6670,10.0,2.46,309.72,4.21,'1111122,1111122,1111122' 
COMPS,ioos:station:USF.COMPS:ARP:1,2015-10-01T04:06:00Z,28.4330,-82.6670,10.0,2.14,313.0,3.62,'1111122,1111122,1111122' 
COMPS,ioos:station:USF.COMPS:ARP:1,2015-10-01T04:12:00Z,28.4330,-82.6670,10.0,2.49,314.76,4.7,'1111122,1111122,1111122' 
COMPS,ioos:station:USF.COMPS:ARP:1,2015-10-01T04:18:00Z,28.4330,-82.6670,10.0,3.11,314.68,4.8,'1111122,1111122,1111122' 
COMPS,ioos:station:USF.COMPS:ARP:1,2015-10-01T04:24:00Z,28.4330,-82.6670,10.0,4.08,306.32,5.78,'1111122,1111122,1111122' 
COMPS,ioos:station:USF.COMPS:ARP:1,2015-10-01T04:30:00Z,28.4330,-82.6670,10.0,4.13,307.1,6.76,'1111122,1111122,1111122' 
COMPS,ioos:station:USF.COMPS:ARP:1,2015-10-01T04:36:00Z,28.4330,-82.6670,10.0,3.71,309.19,6.46,'1111122,1111122,1111122' 
COMPS,ioos:station:USF.COMPS:ARP:1,2015-10-01T04:42:00Z,28.4330,-82.6670,10.0,3.02,311.87,4.7,'1111122,1111122,1111122' 
COMPS,ioos:station:USF.COMPS:ARP:1,2015-10-01T04:48:00Z,28.4330,-82.6670,10.0,2.91,322.62,4.99,'1111122,1111122,1111122' 
COMPS,ioos:station:USF.COMPS:ARP:1,2015-10-01T04:54:00Z,28.4330,-82.6670,10.0,2.28,311.77,4.11,'1111122,1111122,1111122' 
COMPS,ioos:station:USF.COMPS:ARP:1,2015-10-01T05:00:00Z,28.4330,-82.6670,10.0,2.71,318.96,4.9,'1111122,1111122,1111122' 
COMPS,ioos:station:USF.COMPS:ARP:1,2015-10-01T05:06:00Z,28.4330,-82.6670,10.0,4.78,307.91,6.56,'1111122,1111122,1111122' 
COMPS,ioos:station:USF.COMPS:ARP:1,2015-10-01T05:12:00Z,28.4330,-82.6670,10.0,5.1,308.15,6.07,'1111122,1111122,1111122' 
COMPS,ioos:station:USF.COMPS:ARP:1,2015-10-01T05:18:00Z,28.4330,-82.6670,10.0,5.18,306.87,6.76,'1111122,1111122,1111122' 
COMPS,ioos:station:USF.COMPS:ARP:1,2015-10-01T05:24:00Z,28.4330,-82.6670,10.0,4.52,309.33,6.07,'1111122,1111122,1111122' 
COMPS,ioos:station:USF.COMPS:ARP:1,2015-10-01T05:30:00Z,28.4330,-82.6670,10.0,4.33,307.73,5.87,'1111122,1111122,1111122' 
COMPS,ioos:station:USF.COMPS:ARP:1,2015-10-01T05:36:00Z,28.4330,-82.6670,10.0,4.62,310.23,6.46,'1111122,1111122,1111122' 
COMPS,ioos:station:USF.COMPS:ARP:1,2015-10-01T05:42:00Z,28.4330,-82.6670,10.0,5.32,309.62,6.85,'1111122,1111122,1111122' 
COMPS,ioos:station:USF.COMPS:ARP:1,2015-10-01T05:48:00Z,28.4330,-82.6670,10.0,4.76,309.6,6.85,'1111122,1111122,1111122' 
COMPS,ioos:station:USF.COMPS:ARP:1,2015-10-01T05:54:00Z,28.4330,-82.6670,10.0,4.02,307.3,5.68,'1111122,1111122,1111122' 
COMPS,ioos:station:USF.COMPS:ARP:1,2015-10-01T06:00:00Z,28.4330,-82.6670,10.0,3.93,310.78,5.68,'1111122,1111122,1111122' 
COMPS,ioos:station:USF.COMPS:ARP:1,2015-10-01T06:06:00Z,28.4330,-82.6670,10.0,4.64,312.46,6.76,'1111122,1111122,1111122' 
COMPS,ioos:station:USF.COMPS:ARP:1,2015-10-01T06:12:00Z,28.4330,-82.6670,10.0,4.26,309.21,6.17,'1111122,1111122,1111122' 
COMPS,ioos:station:USF.COMPS:ARP:1,2015-10-01T06:18:00Z,28.4330,-82.6670,10.0,4.04,312.11,6.56,'1111122,1111122,1111122' 
COMPS,ioos:station:USF.COMPS:ARP:1,2015-10-01T06:24:00Z,28.4330,-82.6670,10.0,2.77,312.83,4.11,'1111122,1111122,1111122' 
COMPS,ioos:station:USF.COMPS:ARP:1,2015-10-01T06:30:00Z,28.4330,-82.6670,10.0,3.53,308.69,4.99,'1111122,1111122,1111122' 
COMPS,ioos:station:USF.COMPS:ARP:1,2015-10-01T06:36:00Z,28.4330,-82.6670,10.0,5.2,307.85,6.07,'1111122,1111122,1111122' 
COMPS,ioos:station:USF.COMPS:ARP:1,2015-10-01T06:42:00Z,28.4330,-82.6670,10.0,4.9,307.85,6.37,'1111122,1111122,1111122' 
COMPS,ioos:station:USF.COMPS:ARP:1,2015-10-01T06:48:00Z,28.4330,-82.6670,10.0,4.98,306.83,7.15,'1111122,1111122,1111122' 
COMPS,ioos:station:USF.COMPS:ARP:1,2015-10-01T06:54:00Z,28.4330,-82.6670,10.0,4.42,309.66,6.56,'1111122,1111122,1111122' 
COMPS,ioos:station:USF.COMPS:ARP:1,2015-10-01T07:00:00Z,28.4330,-82.6670,10.0,2.61,311.2,4.7,'1111122,1111122,1111122' 
COMPS,ioos:station:USF.COMPS:ARP:1,2015-10-01T07:06:00Z,28.4330,-82.6670,10.0,2.74,312.89,4.9,'1111122,1111122,1111122' 
COMPS,ioos:station:USF.COMPS:ARP:1,2015-10-01T07:12:00Z,28.4330,-82.6670,10.0,2.96,306.4,5.09,'1111122,1111122,1111122' 
COMPS,ioos:station:USF.COMPS:ARP:1,2015-10-01T07:18:00Z,28.4330,-82.6670,10.0,3.02,310.23,4.6,'1111122,1111122,1111122' 
COMPS,ioos:station:USF.COMPS:ARP:1,2015-10-01T07:24:00Z,28.4330,-82.6670,10.0,3.13,314.86,5.09,'1111122,1111122,1111122' 
COMPS,ioos:station:USF.COMPS:ARP:1,2015-10-01T07:30:00Z,28.4330,-82.6670,10.0,3.47,310.98,5.48,'1111122,1111122,1111122' 
COMPS,ioos:station:USF.COMPS:ARP:1,2015-10-01T07:36:00Z,28.4330,-82.6670,10.0,3.44,310.43,5.39,'1111122,1111122,1111122' 
COMPS,ioos:station:USF.COMPS:ARP:1,2015-10-01T07:42:00Z,28.4330,-82.6670,10.0,2.83,308.55,4.01,'1111122,1111122,1111122' 
COMPS,ioos:station:USF.COMPS:ARP:1,2015-10-01T07:48:00Z,28.4330,-82.6670,10.0,3.48,317.56,6.17,'1111122,1111122,1111122' 
COMPS,ioos:station:USF.COMPS:ARP:1,2015-10-01T07:54:00Z,28.4330,-82.6670,10.0,3.32,311.39,6.07,'1111122,1111122,1111122' 
COMPS,ioos:station:USF.COMPS:ARP:1,2015-10-01T08:00:00Z,28.4330,-82.6670,10.0,2.72,308.19,4.5,'1111122,1111122,1111122' 
COMPS,ioos:station:USF.COMPS:ARP:1,2015-10-01T08:06:00Z,28.4330,-82.6670,10.0,2.49,318.95,4.01,'1111122,1111122,1111122' 
COMPS,ioos:station:USF.COMPS:ARP:1,2015-10-01T08:12:00Z,28.4330,-82.6670,10.0,2.33,316.94,4.21,'1111122,1111122,1111122' 
COMPS,ioos:station:USF.COMPS:ARP:1,2015-10-01T08:18:00Z,28.4330,-82.6670,10.0,1.68,317.75,3.82,'1111122,1111122,1111122' 
COMPS,ioos:station:USF.COMPS:ARP:1,2015-10-01T08:24:00Z,28.4330,-82.6670,10.0,2.15,319.42,4.01,'1111122,1111122,1111122' 
COMPS,ioos:station:USF.COMPS:ARP:1,2015-10-01T08:30:00Z,28.4330,-82.6670,10.0,2.5,315.48,4.41,'1111122,1111122,1111122' 
COMPS,ioos:station:USF.COMPS:ARP:1,2015-10-01T08:36:00Z,28.4330,-82.6670,10.0,2.0,327.78,3.23,'1111122,1111122,1111122' 
COMPS,ioos:station:USF.COMPS:ARP:1,2015-10-01T08:42:00Z,28.4330,-82.6670,10.0,1.92,316.09,3.23,'1111122,1111122,1111122' 
COMPS,ioos:station:USF.COMPS:ARP:1,2015-10-01T08:48:00Z,28.4330,-82.6670,10.0,1.15,341.93,3.62,'1111122,1111122,1111122' 
COMPS,ioos:station:USF.COMPS:ARP:1,2015-10-01T08:54:00Z,28.4330,-82.6670,10.0,1.37,333.33,3.03,'1111122,1111122,1111122' 
COMPS,ioos:station:USF.COMPS:ARP:1,2015-10-01T09:00:00Z,28.4330,-82.6670,10.0,1.65,333.77,3.91,'1111122,1111122,1111122' 
COMPS,ioos:station:USF.COMPS:ARP:1,2015-10-01T09:06:00Z,28.4330,-82.6670,10.0,1.67,319.95,3.33,'1111122,1111122,1111122' 
COMPS,ioos:station:USF.COMPS:ARP:1,2015-10-01T09:12:00Z,28.4330,-82.6670,10.0,1.6,326.22,3.03,'1111122,1111122,1111122' 
COMPS,ioos:station:USF.COMPS:ARP:1,2015-10-01T09:18:00Z,28.4330,-82.6670,10.0,2.07,325.17,4.01,'1111122,1111122,1111122' 
COMPS,ioos:station:USF.COMPS:ARP:1,2015-10-01T09:24:00Z,28.4330,-82.6670,10.0,1.95,323.21,3.82,'1111122,1111122,1111122' 
COMPS,ioos:station:USF.COMPS:ARP:1,2015-10-01T09:30:00Z,28.4330,-82.6670,10.0,1.82,325.33,2.93,'1111122,1111122,1111122' 
COMPS,ioos:station:USF.COMPS:ARP:1,2015-10-01T09:36:00Z,28.4330,-82.6670,10.0,1.72,325.66,4.41,'1111122,1111122,1111122' 
COMPS,ioos:station:USF.COMPS:ARP:1,2015-10-01T09:42:00Z,28.4330,-82.6670,10.0,1.44,337.55,3.13,'1111122,1111122,1111122' 
COMPS,ioos:station:USF.COMPS:ARP:1,2015-10-01T09:48:00Z,28.4330,-82.6670,10.0,1.52,343.3,4.01,'1111122,1111122,1111122' 
COMPS,ioos:station:USF.COMPS:ARP:1,2015-10-01T09:54:00Z,28.4330,-82.6670,10.0,1.47,334.79,3.42,'1111122,1111122,1111122' 
COMPS,ioos:station:USF.COMPS:ARP:1,2015-10-01T10:00:00Z,28.4330,-82.6670,10.0,1.05,328.65,3.13,'1111122,1111122,1111122' 
COMPS,ioos:station:USF.COMPS:ARP:1,2015-10-01T10:06:00Z,28.4330,-82.6670,10.0,1.21,335.52,3.23,'1111122,1111122,1111122' 
COMPS,ioos:station:USF.COMPS:ARP:1,2015-10-01T10:12:00Z,28.4330,-82.6670,10.0,1.38,344.72,2.54,'1111122,1111122,1111122' 
COMPS,ioos:station:USF.COMPS:ARP:1,2015-10-01T10:18:00Z,28.4330,-82.6670,10.0,1.09,331.42,3.42,'1111122,1111122,1111122' 
COMPS,ioos:station:USF.COMPS:ARP:1,2015-10-01T10:24:00Z,28.4330,-82.6670,10.0,0.68,350.03,2.25,'1111122,1111122,1111122' 
COMPS,ioos:station:USF.COMPS:ARP:1,2015-10-01T10:30:00Z,28.4330,-82.6670,10.0,0.83,356.17,1.76,'1111122,1111122,1111122' 
COMPS,ioos:station:USF.COMPS:ARP:1,2015-10-01T10:36:00Z,28.4330,-82.6670,10.0,0.43,349.39,1.37,'1111122,1111122,1111122' 
COMPS,ioos:station:USF.COMPS:ARP:1,2015-10-01T10:42:00Z,28.4330,-82.6670,10.0,0.32,4.3,1.37,'1111122,1111122,1111122' 
COMPS,ioos:station:USF.COMPS:ARP:1,2015-10-01T10:48:00Z,28.4330,-82.6670,10.0,0.38,9.47,1.76,'1111122,1111122,1111122' 
COMPS,ioos:station:USF.COMPS:ARP:1,2015-10-01T10:54:00Z,28.4330,-82.6670,10.0,0.25,10.86,0.88,'1111122,1111122,1111122' 
COMPS,ioos:station:USF.COMPS:ARP:1,2015-10-01T11:00:00Z,28.4330,-82.6670,10.0,0.69,27.93,2.15,'1111122,1111122,1111122' 
COMPS,ioos:station:USF.COMPS:ARP:1,2015-10-01T11:06:00Z,28.4330,-82.6670,10.0,0.6,24.44,2.15,'1111122,1111122,1111122' 
COMPS,ioos:station:USF.COMPS:ARP:1,2015-10-01T11:12:00Z,28.4330,-82.6670,10.0,0.43,27.15,1.27,'1111122,1111122,1111122' 
COMPS,ioos:station:USF.COMPS:ARP:1,2015-10-01T11:18:00Z,28.4330,-82.6670,10.0,1.08,67.28,2.45,'1111122,1111122,1111122' 
COMPS,ioos:station:USF.COMPS:ARP:1,2015-10-01T11:24:00Z,28.4330,-82.6670,10.0,2.06,72.84,2.84,'1111122,1111122,1111122' 
COMPS,ioos:station:USF.COMPS:ARP:1,2015-10-01T11:30:00Z,28.4330,-82.6670,10.0,1.59,78.59,2.45,'1111122,1111122,1111122' 
COMPS,ioos:station:USF.COMPS:ARP:1,2015-10-01T11:36:00Z,28.4330,-82.6670,10.0,0.92,97.77,1.56,'1111122,1111122,1111122' 
COMPS,ioos:station:USF.COMPS:ARP:1,2015-10-01T11:42:00Z,28.4330,-82.6670,10.0,1.16,84.07,1.56,'1111122,1111122,1111122' 
COMPS,ioos:station:USF.COMPS:ARP:1,2015-10-01T11:48:00Z,28.4330,-82.6670,10.0,1.03,91.05,1.46,'1111122,1111122,1111122' 
COMPS,ioos:station:USF.COMPS:ARP:1,2015-10-01T11:54:00Z,28.4330,-82.6670,10.0,0.77,108.39,1.17,'1111122,1111122,1111122' 
COMPS,ioos:station:USF.COMPS:ARP:1,2015-10-01T12:00:00Z,28.4330,-82.6670,10.0,0.74,109.6,1.17,'1111122,1111122,1111122' 
COMPS,ioos:station:USF.COMPS:ARP:1,2015-10-01T12:06:00Z,28.4330,-82.6670,10.0,0.98,95.52,1.46,'1111122,1111122,1111122' 
COMPS,ioos:station:USF.COMPS:ARP:1,2015-10-01T12:12:00Z,28.4330,-82.6670,10.0,0.77,86.7,1.76,'1111122,1111122,1111122' 
COMPS,ioos:station:USF.COMPS:ARP:1,2015-10-01T12:18:00Z,28.4330,-82.6670,10.0,0.9,81.86,1.37,'1111122,1111122,1111122' 
COMPS,ioos:station:USF.COMPS:ARP:1,2015-10-01T12:24:00Z,28.4330,-82.6670,10.0,1.48,93.82,2.05,'1111122,1111122,1111122' 
COMPS,ioos:station:USF.COMPS:ARP:1,2015-10-01T12:30:00Z,28.4330,-82.6670,10.0,1.15,76.72,1.86,'1111122,1111122,1111122' 
COMPS,ioos:station:USF.COMPS:ARP:1,2015-10-01T12:36:00Z,28.4330,-82.6670,10.0,0.37,346.69,0.78,'1111122,1111122,1111122' 
COMPS,ioos:station:USF.COMPS:ARP:1,2015-10-01T12:42:00Z,28.4330,-82.6670,10.0,0.14,19.06,0.68,'1111122,1111122,1111122' 
COMPS,ioos:station:USF.COMPS:ARP:1,2015-10-01T12:48:00Z,28.4330,-82.6670,10.0,0.49,72.11,1.07,'1111122,1111122,1111122' 
COMPS,ioos:station:USF.COMPS:ARP:1,2015-10-01T12:54:00Z,28.4330,-82.6670,10.0,0.58,354.81,1.27,'1111122,1111122,1111122' 
COMPS,ioos:station:USF.COMPS:ARP:1,2015-10-01T13:00:00Z,28.4330,-82.6670,10.0,0.69,4.69,1.86,'1111122,1111122,1111122' 
COMPS,ioos:station:USF.COMPS:ARP:1,2015-10-01T13:06:00Z,28.4330,-82.6670,10.0,0.78,307.38,1.86,'1111122,1111122,1111122' 
COMPS,ioos:station:USF.COMPS:ARP:1,2015-10-01T13:12:00Z,28.4330,-82.6670,10.0,0.87,339.14,2.05,'1111122,1111122,1111122' 
COMPS,ioos:station:USF.COMPS:ARP:1,2015-10-01T13:18:00Z,28.4330,-82.6670,10.0,0.75,18.6,1.95,'1111122,1111122,1111122' 
COMPS,ioos:station:USF.COMPS:ARP:1,2015-10-01T13:24:00Z,28.4330,-82.6670,10.0,0.64,26.3,2.25,'1111122,1111122,1111122' 
COMPS,ioos:station:USF.COMPS:ARP:1,2015-10-01T13:30:00Z,28.4330,-82.6670,10.0,1.16,348.34,2.45,'1111122,1111122,1111122' 
COMPS,ioos:station:USF.COMPS:ARP:1,2015-10-01T13:36:00Z,28.4330,-82.6670,10.0,0.76,8.6,2.54,'1111122,1111122,1111122' 
COMPS,ioos:station:USF.COMPS:ARP:1,2015-10-01T13:42:00Z,28.4330,-82.6670,10.0,0.66,35.6,1.56,'1111122,1111122,1111122' 
COMPS,ioos:station:USF.COMPS:ARP:1,2015-10-01T13:48:00Z,28.4330,-82.6670,10.0,0.77,19.34,2.25,'1111122,1111122,1111122' 
COMPS,ioos:station:USF.COMPS:ARP:1,2015-10-01T13:54:00Z,28.4330,-82.6670,10.0,1.03,15.77,1.95,'1111122,1111122,1111122' 
COMPS,ioos:station:USF.COMPS:ARP:1,2015-10-01T14:00:00Z,28.4330,-82.6670,10.0,1.05,20.2,3.03,'1111122,1111122,1111122' 
COMPS,ioos:station:USF.COMPS:ARP:1,2015-10-01T14:06:00Z,28.4330,-82.6670,10.0,1.27,11.55,2.93,'1111122,1111122,1111122' 
COMPS,ioos:station:USF.COMPS:ARP:1,2015-10-01T14:12:00Z,28.4330,-82.6670,10.0,1.23,30.81,2.74,'1111122,1111122,1111122' 
COMPS,ioos:station:USF.COMPS:ARP:1,2015-10-01T14:18:00Z,28.4330,-82.6670,10.0,1.29,344.55,3.23,'1111122,1111122,1111122' 
COMPS,ioos:station:USF.COMPS:ARP:1,2015-10-01T14:24:00Z,28.4330,-82.6670,10.0,0.96,336.25,2.45,'1111122,1111122,1111122' 
COMPS,ioos:station:USF.COMPS:ARP:1,2015-10-01T14:30:00Z,28.4330,-82.6670,10.0,1.27,332.19,2.64,'1111122,1111122,1111122' 
COMPS,ioos:station:USF.COMPS:ARP:1,2015-10-01T14:36:00Z,28.4330,-82.6670,10.0,1.15,341.68,2.54,'1111122,1111122,1111122' 
COMPS,ioos:station:USF.COMPS:ARP:1,2015-10-01T14:42:00Z,28.4330,-82.6670,10.0,0.81,340.59,2.74,'1111122,1111122,1111122' 
COMPS,ioos:station:USF.COMPS:ARP:1,2015-10-01T14:48:00Z,28.4330,-82.6670,10.0,1.16,324.54,2.45,'1111122,1111122,1111122' 
COMPS,ioos:station:USF.COMPS:ARP:1,2015-10-01T14:54:00Z,28.4330,-82.6670,10.0,2.06,313.92,3.52,'1111122,1111122,1111122' 
COMPS,ioos:station:USF.COMPS:ARP:1,2015-10-01T15:00:00Z,28.4330,-82.6670,10.0,2.01,314.92,3.52,'1111122,1111122,1111122' 
COMPS,ioos:station:USF.COMPS:ARP:1,2015-10-01T15:06:00Z,28.4330,-82.6670,10.0,2.19,311.81,3.52,'1111122,1111122,1111122' 
COMPS,ioos:station:USF.COMPS:ARP:1,2015-10-01T15:12:00Z,28.4330,-82.6670,10.0,2.59,307.86,3.72,'1111122,1111122,1111122' 
COMPS,ioos:station:USF.COMPS:ARP:1,2015-10-01T15:18:00Z,28.4330,-82.6670,10.0,2.88,307.83,3.82,'1111122,1111122,1111122' 
COMPS,ioos:station:USF.COMPS:ARP:1,2015-10-01T15:24:00Z,28.4330,-82.6670,10.0,3.25,304.63,4.31,'1111122,1111122,1111122' 
COMPS,ioos:station:USF.COMPS:ARP:1,2015-10-01T15:30:00Z,28.4330,-82.6670,10.0,2.68,305.46,3.91,'1111122,1111122,1111122' 
COMPS,ioos:station:USF.COMPS:ARP:1,2015-10-01T15:36:00Z,28.4330,-82.6670,10.0,3.07,303.83,4.31,'1111122,1111122,1111122' 
COMPS,ioos:station:USF.COMPS:ARP:1,2015-10-01T15:42:00Z,28.4330,-82.6670,10.0,2.73,304.17,3.72,'1111122,1111122,1111122' 
COMPS,ioos:station:USF.COMPS:ARP:1,2015-10-01T15:48:00Z,28.4330,-82.6670,10.0,3.14,304.26,4.21,'1111122,1111122,1111122' 
COMPS,ioos:station:USF.COMPS:ARP:1,2015-10-01T15:54:00Z,28.4330,-82.6670,10.0,3.1,302.77,3.82,'1111122,1111122,1111122' 
COMPS,ioos:station:USF.COMPS:ARP:1,2015-10-01T16:00:00Z,28.4330,-82.6670,10.0,2.99,304.55,3.72,'1111122,1111122,1111122' 
COMPS,ioos:station:USF.COMPS:ARP:1,2015-10-01T16:06:00Z,28.4330,-82.6670,10.0,3.4,301.64,4.11,'1111122,1111122,1111122' 
COMPS,ioos:station:USF.COMPS:ARP:1,2015-10-01T16:12:00Z,28.4330,-82.6670,10.0,3.54,301.26,4.11,'1111122,1111122,1111122' 
COMPS,ioos:station:USF.COMPS:ARP:1,2015-10-01T16:18:00Z,28.4330,-82.6670,10.0,3.78,300.96,4.41,'1111122,1111122,1111122' 
COMPS,ioos:station:USF.COMPS:ARP:1,2015-10-01T16:24:00Z,28.4330,-82.6670,10.0,3.36,302.05,4.41,'1111122,1111122,1111122' 
COMPS,ioos:station:USF.COMPS:ARP:1,2015-10-01T16:30:00Z,28.4330,-82.6670,10.0,3.86,303.11,4.5,'1111122,1111122,1111122' 
COMPS,ioos:station:USF.COMPS:ARP:1,2015-10-01T16:36:00Z,28.4330,-82.6670,10.0,3.55,303.87,4.41,'1111122,1111122,1111122' 
COMPS,ioos:station:USF.COMPS:ARP:1,2015-10-01T16:42:00Z,28.4330,-82.6670,10.0,3.49,305.06,4.6,'1111122,1111122,1111122' 
COMPS,ioos:station:USF.COMPS:ARP:1,2015-10-01T16:48:00Z,28.4330,-82.6670,10.0,3.43,304.46,4.31,'1111122,1111122,1111122' 
COMPS,ioos:station:USF.COMPS:ARP:1,2015-10-01T16:54:00Z,28.4330,-82.6670,10.0,3.43,304.57,4.6,'1111122,1111122,1111122' 
COMPS,ioos:station:USF.COMPS:ARP:1,2015-10-01T17:00:00Z,28.4330,-82.6670,10.0,3.72,304.05,4.6,'1111122,1111122,1111122' 
COMPS,ioos:station:USF.COMPS:ARP:1,2015-10-01T17:06:00Z,28.4330,-82.6670,10.0,4.08,302.98,4.7,'1111122,1111122,1111122' 
COMPS,ioos:station:USF.COMPS:ARP:1,2015-10-01T17:12:00Z,28.4330,-82.6670,10.0,4.1,303.79,5.09,'1111122,1111122,1111122' 
COMPS,ioos:station:USF.COMPS:ARP:1,2015-10-01T17:18:00Z,28.4330,-82.6670,10.0,4.16,306.08,4.99,'1111122,1111122,1111122' 
COMPS,ioos:station:USF.COMPS:ARP:1,2015-10-01T17:24:00Z,28.4330,-82.6670,10.0,4.35,304.28,5.58,'1111122,1111122,1111122' 
COMPS,ioos:station:USF.COMPS:ARP:1,2015-10-01T17:30:00Z,28.4330,-82.6670,10.0,4.13,306.62,5.19,'1111122,1111122,1111122' 
COMPS,ioos:station:USF.COMPS:ARP:1,2015-10-01T17:36:00Z,28.4330,-82.6670,10.0,3.81,306.5,4.9,'1111122,1111122,1111122' 
COMPS,ioos:station:USF.COMPS:ARP:1,2015-10-01T17:42:00Z,28.4330,-82.6670,10.0,3.58,306.05,4.5,'1111122,1111122,1111122' 
COMPS,ioos:station:USF.COMPS:ARP:1,2015-10-01T17:48:00Z,28.4330,-82.6670,10.0,4.39,306.08,5.58,'1111122,1111122,1111122' 
COMPS,ioos:station:USF.COMPS:ARP:1,2015-10-01T17:54:00Z,28.4330,-82.6670,10.0,3.41,306.61,4.8,'1111122,1111122,1111122' 
COMPS,ioos:station:USF.COMPS:ARP:1,2015-10-01T18:00:00Z,28.4330,-82.6670,10.0,3.04,303.62,4.21,'1111122,1111122,1111122' 
COMPS,ioos:station:USF.COMPS:ARP:1,2015-10-01T18:06:00Z,28.4330,-82.6670,10.0,4.07,307.97,4.7,'1111122,1111122,1111122' 
COMPS,ioos:station:USF.COMPS:ARP:1,2015-10-01T18:12:00Z,28.4330,-82.6670,10.0,3.79,305.59,4.7,'1111122,1111122,1111122' 
COMPS,ioos:station:USF.COMPS:ARP:1,2015-10-01T18:18:00Z,28.4330,-82.6670,10.0,3.78,304.67,4.8,'1111122,1111122,1111122' 
COMPS,ioos:station:USF.COMPS:ARP:1,2015-10-01T18:24:00Z,28.4330,-82.6670,10.0,4.12,306.87,5.29,'1111122,1111122,1111122' 
COMPS,ioos:station:USF.COMPS:ARP:1,2015-10-01T18:30:00Z,28.4330,-82.6670,10.0,3.47,309.78,4.6,'1111122,1111122,1111122' 
COMPS,ioos:station:USF.COMPS:ARP:1,2015-10-01T18:36:00Z,28.4330,-82.6670,10.0,4.09,307.54,5.09,'1111122,1111122,1111122' 
COMPS,ioos:station:USF.COMPS:ARP:1,2015-10-01T18:42:00Z,28.4330,-82.6670,10.0,4.54,306.16,5.68,'1111122,1111122,1111122' 
COMPS,ioos:station:USF.COMPS:ARP:1,2015-10-01T18:48:00Z,28.4330,-82.6670,10.0,4.76,305.38,5.58,'1111122,1111122,1111122' 
COMPS,ioos:station:USF.COMPS:ARP:1,2015-10-01T18:54:00Z,28.4330,-82.6670,10.0,4.51,304.95,5.58,'1111122,1111122,1111122' 
COMPS,ioos:station:USF.COMPS:ARP:1,2015-10-01T19:00:00Z,28.4330,-82.6670,10.0,4.4,304.0,5.29,'1111122,1111122,1111122' 
COMPS,ioos:station:USF.COMPS:ARP:1,2015-10-01T19:06:00Z,28.4330,-82.6670,10.0,4.25,304.79,5.19,'1111122,1111122,1111122' 
COMPS,ioos:station:USF.COMPS:ARP:1,2015-10-01T19:12:00Z,28.4330,-82.6670,10.0,4.11,301.02,4.9,'1111122,1111122,1111122' 
COMPS,ioos:station:USF.COMPS:ARP:1,2015-10-01T19:18:00Z,28.4330,-82.6670,10.0,4.45,304.76,5.39,'1111122,1111122,1111122' 
COMPS,ioos:station:USF.COMPS:ARP:1,2015-10-01T19:24:00Z,28.4330,-82.6670,10.0,4.83,303.69,5.68,'1111122,1111122,1111122' 
COMPS,ioos:station:USF.COMPS:ARP:1,2015-10-01T19:30:00Z,28.4330,-82.6670,10.0,4.57,307.84,5.87,'1111122,1111122,1111122' 